Weather in Mikhaylovskoye

Russia / Republic of Karelia     61°00′52″N   33°43′57″E
temp.,
°C
wind,
m/s
gust,
m/s
humid.,
%
clouds,
%
prec.,
mm/h
press.,
hPa
HPBL,
m
6 august, fri
fri600:00+14ene386799 0.0 1016253
03:00+12ene276887 0.0 1016198
06:00+11ene278175 0.0 1016178
09:00+16e496291 0.0 10161171
12:00+14e41074100 0.1 10171070
15:00+15e5107086 0.1 10171003
18:00+16ene5126248 0.0 10161297
21:00+13ene4127841 0.0 1016724
7 august, sat
sat700:00+13ene5128361 0.0 1015605
03:00+11ene41097100 0.0 1015518
06:00+13ene41086100 0.0 1015701
09:00+16ene5117799 0.0 1014708
12:00+19e61069100 0.0 10131090
15:00+18e51177100 0.0 1013952
18:00+16e61395100 1.5 1012960
21:00+15e61497100 9.8 10111091
8 august, sun
sun800:00+15e51298100 3.6 1011776
03:00+15e41198100 3.7 1011613
06:00+15e4999100 0.1 1010524
09:00+15e3899100 1.2 1011426
12:00+17sse1393100 0.6 1012441
15:00+21nne117120 1.2 1012827
18:00+19sw018313 2.3 1013313
21:00+15nne11945 2.7 101411
9 august, mon
mon900:00+14ene00975 0.0 101511
03:00+13e1198100 0.0 101514
06:00+14se129889 0.0 101649
09:00+17se238881 0.0 1016321
12:00+22se23595 0.0 1015900
15:00+25sse2450100 0.0 10151338
18:00+21ese2367100 0.0 101476
21:00+18ese1289100 0.3 101547
10 august, tue
tue1000:00+16wsw269775 0.0 1016128
03:00+15ssw2599100 0.0 1016134
06:00+15ssw2699100 0.0 1017250
09:00+18wsw358870 0.0 1018522
12:00+23sw34534 0.0 10181476
15:00+25w344498 0.0 10182020
18:00+23wnw225680 0.0 1018354
21:00+19n1169100 0.0 101811